Probability
0 0 0 0 0 0 0 0 0 0 0 0 0 0 0 0 0 0 0 0 0 0 0 0 0 0 0 0 0 0 0 0 0 0 0 0 0 0 0 0 0 0 0 0
0 0 0 0 0 0 0 0 0 0 0 0 0 0 0 0 0 0 0 0 0 0 0 0 0 0 0 0 0 0 0 0 0 0 0 0 0 0 0 0 0 0 0 0
0 0 0 0 0 0 0 0 0 0 0 0 0 0 0 0 0 0 0 0 0 0 0 0 0 0 0 0 0 0 0 0 0 0 0 0 0 0 0 0 0 0 0 0
0 0 0 0 0 0 0 0 0 0 0 0 0 0 0 0 0 0 0 0 0 0 0 0 0 0 0 0 0 0 0 0 0 0 0 0 0 0 0 0 0 0 0 0
0 0 0 0 0 0 0 0 0 0 0 0 0 0 0 0 0 0 0 0 0 0 0 0 0 0 0 0 0 0 0 0 0 0 0 0 0 0 0 0 0 0 0 0
0 0 0 0 0 0 0 0 0 0 0 0 0 0 0 0 0 0 0 0 0 0 0 0 0 0 0 0 0 0 0 0 0 0 0 0 0 0 0 0 0 0 0 0
0 0 0 0 0 0 0 0 0 0 0 0 0 0 0 0 0 0 0 0 0 0 0 0 0 0 0 0 0 0 0 0 0 0 0 0 0 0 0 0 0 0 0 0
0 0 0 0 0 0 0 0 0 0 0 0 0 0 0 0 0 0 0 0 0 0 0 0 0 0 0 0 0 0 0 0 0 0 0 0 0 0 0 0 0 0 0 0
0 0 0 0 0 0 0 0 0 0 0 0 0 0 0 0 0 0 0 0 0 0 0 0 0 0 0 0 0 0 0 0 0 0 0 0 0 0 0 0 0 0 0 0
0 0 0 0 0 0 0 0 0 0 0 0 0 0 0 0 0 0 0 0 0 0 0 0 0 0 0 0 0 0 0 0 0 0 0 0 0 0 0 0 0 0 0 0
0 0 0 0 0 0 0 0 0 0 0 0 0 0 0 0 0 0 0 0 0 0 0 0 0 0 0 0 0 0 0 0 0 0 0 0 0 0 0 0 0 0 0 0
0 0 0 0 0 0 0 0 0 0 0 0 0 0 0 0 0 0 0 0 0 0 0 0 0 0 0 0 0 0 0 0 0 0 0 0 0 0 0 0 0 0 0 0
0 0 0 0 0 0 0 0 0 0 0 0 0 0 0 0 0 0 0 0 0 0 0 0 0 0 0 0 0 0 0 0 0 0 0 0 0 0 0 0 0 0 0 0
0 0 0 0 0 0 0 0 0 0 0 0 0 0 0 0 0 0 0 0 0 0 0 0 0 0 0 0 0 0 0 0 0 0 0 0 0 0 0 0 0 0 0 0
0 0 0 0 0 0 0 0 0 0 0 0 0 0 0 0 0 0 0 0 0 0 0 0 0 0 0 0 0 0 0 0 0 0 0 0 0 0 0 0 0 0 0 0
0 0 0 0 0 0 0 0 0 0 0 0 0 0 0 0 0 0 0 0 0 0 0 0 0 0 0 0 0 0 0 0 0 0 0 0 0 0 0 0 0 0 0 0
0 0 0 0 0 0 0 0 0 0 0 0 0 0 0 0 0 0 0 0 0 0 0 0 0 0 0 0 0 0 0 0 0 0 0 0 0 0 0 0 0 0 0 0
0 0 0 0 0 0 0 0 0 0 0 0 0 0 0 0 0 0 0 0 0 0 0 0 0 0 0 0 0 0 0 0 0 0 0 0 0 0 0 0 0 0 0 0
0 0 0 0 0 0 0 0 0 0 0 0 0 0 0 0 0 0 0 0 0 0 0 0 0 0 0 0 0 0 0 0 0 0 0 0 0 0 0 0 0 0 0 0
0 0 0 0 0 0 0 0 0 0 0 0 0 0 0 0 0 0 0 0 0 0 0 0 0 0 0 0 0 0 0 0 0 0 0 0 0 0 0 0 0 0 0 0
0 0 0 0 0 0 0 0 0 0 0 0 0 0 0 0 0 0 0 0 0 0 0 0 0 0 0 0 0 0 0 0 0 0 0 0 0 0 0 0 0 0 0 0
0 0 0 0 0 0 0 0 0 0 0 0 0 0 0 0 0 0 0 0 0 0 0 0 0 0 0 0 0 0 0 0 0 0 0 0 0 0 0 0 0 0 0 0
0 0 0 0 0 0 0 0 0 0 0 0 0 0 0 0 0 0 0 0 0 0 0 0 0 0 0 0 0 0 0 0 0 0 0 0 0 0 0 0 0 0 0 0
0 0 0 0 0 0 0 0 0 0 0 0 0 0 0 0 0 0 0 0 0 0 0 0 0 0 0 0 0 0 0 0 0 0 0 0 0 0 0 0 0 0 0 0
0 0 0 0 0 0 0 0 0 0 0 0 0 0 0 0 0 0 0 0 0 0 0 0 0 0 0 0 0 0 0 0 0 0 0 0 0 0 0 0 0 0 0 0
0 0 0 0 0 0 0 0 0 0 0 0 0 0 0 0 0 0 0 0 0 0 0 0 0 0 0 0 0 0 0 0 0 0 0 0 0 0 0 0 0 0 0 0
0 0 0 0 0 0 0 0 0 0 0 0 0 0 0 0 0 0 0 0 0 0 0 0 0 0 0 0 0 0 0 0 0 0 0 0 0 0 0 0 0 0 0 0
Wind_Speed
6 3 3 6 8 9 12 11 11 11 11 15 10 8 7 6 5 5 5 5 5 4 4 3 3 3 3 4 3 4 5 6 6 5 5 5 5 5 5 5 6 6 5 5
4 3 4 8 11 12 13 11 13 12 17 13 8 6 6 6 5 5 6 5 5 5 4 4 4 4 4 4 3 4 5 5 4 4 4 4 4 5 5 5 4 4 5 5
5 2 3 11 13 14 10 10 11 15 16 6 7 8 7 6 5 5 6 5 5 5 5 5 4 4 4 4 2 3 4 3 4 4 4 4 4 4 4 5 4 4 4 4
2 1 9 10 3 9 10 9 10 10 9 7 8 7 6 4 4 6 5 5 5 4 4 3 2 2 2 1 2 2 2 2 2 3 3 3 3 4 4 3 4 4 4 4
3 4 11 9 3 6 8 9 8 12 12 9 6 6 5 3 3 5 5 4 4 3 2 2 1 1 1 1 1 1 2 2 2 3 3 3 4 4 3 3 3 3 3 4
4 4 9 7 1 2 3 7 3 7 9 6 1 3 6 5 4 4 4 3 2 2 2 1 1 1 2 1 1 2 2 2 1 2 3 3 3 3 2 3 3 2 2 2
7 7 12 7 1 4 4 6 2 2 4 2 4 5 4 5 5 4 4 4 2 2 1 2 1 2 2 1 2 2 1 0 1 2 2 2 2 2 2 2 2 2 2 2
7 7 12 2 5 6 5 3 3 2 2 3 5 5 5 5 5 4 4 4 3 2 2 3 2 1 1 1 2 1 1 1 1 1 1 1 2 2 2 2 2 2 2 1
11 9 2 4 4 2 2 3 3 3 3 3 4 4 5 4 4 4 3 3 3 2 2 3 3 1 0 2 2 1 1 1 1 1 1 1 2 2 2 2 2 1 1 2
5 7 4 3 3 3 2 3 4 4 4 3 4 5 5 5 4 4 3 3 2 2 2 2 2 2 2 2 1 1 1 1 1 1 1 1 1 1 2 2 2 2 2 2
5 5 5 3 2 5 5 4 5 5 4 4 4 5 5 5 5 4 3 3 2 1 2 2 2 2 3 2 1 0 1 1 1 1 1 1 1 1 2 2 2 3 2 2
6 4 4 4 3 3 4 5 6 6 6 4 3 5 5 4 4 3 3 3 2 2 2 2 2 2 3 2 1 1 0 0 0 0 0 1 1 0 1 1 1 2 2 1
4 4 5 5 4 4 4 5 5 4 5 6 5 4 4 4 3 3 3 3 2 2 2 2 2 2 2 2 0 1 1 1 1 1 1 1 1 1 1 1 2 3 3 4
3 3 4 4 5 5 4 5 4 4 4 4 5 4 3 3 3 3 3 3 3 2 2 2 2 3 2 1 0 1 1 0 1 1 1 1 1 1 1 1 1 2 3 4
5 5 6 5 5 5 4 4 4 5 5 5 4 4 3 3 4 4 3 2 2 2 2 2 3 4 2 1 1 1 1 1 1 1 1 1 1 1 1 1 2 2 2 2
6 4 4 5 6 6 5 4 4 6 5 5 5 4 4 3 4 4 3 1 1 2 3 3 4 4 1 1 1 1 1 0 1 1 1 1 1 1 1 1 2 2 2 2
4 5 5 5 6 6 5 5 5 6 5 5 5 5 4 3 3 4 3 2 2 3 3 3 4 3 1 1 2 1 1 1 1 1 1 1 1 2 2 2 2 2 3 3
4 6 5 5 5 6 6 5 4 5 5 5 4 3 3 3 4 5 4 3 3 3 3 4 3 1 1 1 1 1 1 1 1 1 1 1 1 1 2 2 2 3 3 3
4 4 4 4 4 4 5 5 5 4 4 3 3 3 3 3 4 4 3 2 3 4 5 4 3 1 1 2 1 1 1 1 1 1 1 1 1 1 2 2 2 3 3 3
4 4 3 4 3 3 4 4 4 4 4 3 3 3 4 4 4 3 3 3 3 3 4 3 2 2 1 2 1 1 1 2 2 1 1 2 2 2 2 3 3 3 3 3
4 4 4 4 4 3 3 3 3 4 4 3 2 3 4 4 4 3 2 4 4 3 3 3 2 2 2 1 2 1 2 2 2 2 2 2 2 2 3 3 3 3 4 4
3 3 4 3 3 4 4 3 3 3 3 3 3 3 3 4 4 3 2 3 4 4 3 2 2 2 2 2 2 2 2 3 3 2 3 3 3 3 3 4 4 4 4 4
3 3 3 3 3 4 4 3 3 3 3 3 3 4 4 4 3 3 4 3 3 4 4 3 3 4 3 2 2 2 3 3 3 3 3 3 4 4 4 4 4 4 4 4
3 3 3 3 2 2 4 4 4 3 3 3 3 3 3 3 3 2 3 5 5 5 4 4 5 4 3 1 2 2 3 3 3 3 3 3 3 3 4 4 4 4 4 5
3 2 3 3 3 3 3 4 4 4 3 3 3 3 3 2 3 4 4 4 5 5 4 4 5 4 2 2 2 2 3 3 3 3 3 3 3 4 4 4 4 4 4 5
3 2 2 2 3 3 3 2 3 3 3 4 4 3 3 2 3 3 3 4 4 4 4 3 3 3 2 2 2 3 3 3 3 3 4 4 4 4 4 4 5 5 5 5
3 2 2 2 2 2 2 2 2 3 3 3 4 4 4 3 3 4 4 4 3 3 3 3 3 2 2 2 3 3 3 3 3 3 3 3 3 4 4 5 4 4 5 5
Wind_Direction
253 253 219 229 222 202 210 216 222 242 246 263 275 276 282 286 291 298 300 297 288 280 279 274 269 260 247 240 225 206 201 208 215 211 206 201 198 197 195 193 197 194 192 194
271 238 233 257 241 222 227 232 242 263 269 265 275 281 284 285 285 285 288 287 287 286 282 270 260 257 252 245 222 202 204 212 212 204 199 198 198 194 189 191 190 184 194 195
258 286 320 265 226 200 209 214 206 232 249 279 287 287 282 285 276 270 277 281 278 272 267 266 262 254 242 236 191 183 200 205 203 198 197 198 191 181 184 186 179 182 189 187
251 40 242 245 179 188 210 232 219 240 262 270 272 287 280 267 264 274 279 281 277 276 279 281 281 276 264 169 156 177 192 199 193 189 195 187 181 185 185 180 179 184 184 185
177 243 273 287 229 178 200 255 221 232 256 273 298 308 292 290 273 264 270 275 277 278 284 293 292 274 137 131 143 172 212 213 198 184 183 177 184 193 187 174 179 181 176 179
177 214 245 257 220 180 152 274 253 218 249 267 331 302 288 336 328 307 318 324 322 335 356 354 342 92 126 142 155 223 234 223 189 175 178 185 190 186 174 171 177 168 183 181
202 230 259 265 210 136 177 258 320 216 249 232 212 236 295 336 339 340 341 341 354 15 13 350 18 104 127 135 236 260 276 111 140 164 178 181 169 154 147 156 151 160 177 189
180 215 253 232 137 181 231 322 353 327 283 243 255 287 315 325 328 339 346 352 4 15 3 6 28 97 135 243 287 344 58 106 144 165 166 154 142 130 128 148 155 171 178 208
195 213 240 150 186 237 342 321 328 323 310 290 284 292 305 311 316 325 333 341 357 5 6 10 17 37 249 307 352 49 99 124 128 126 133 132 148 146 136 147 166 184 192 215
236 258 256 233 264 301 304 287 304 314 311 306 290 297 304 306 313 318 326 335 354 10 0 346 356 3 342 347 12 91 142 152 127 132 122 110 141 155 163 177 191 198 207 226
246 280 303 286 275 285 297 309 309 308 303 296 294 298 300 304 309 314 323 341 351 337 320 323 348 350 353 358 17 80 140 116 107 124 150 162 174 196 193 203 200 196 209 208
232 235 238 270 318 341 314 305 303 308 313 313 295 292 304 303 311 321 327 338 340 334 326 330 350 346 351 352 2 100 126 142 163 178 187 180 178 299 272 246 260 241 228 209
250 278 252 274 313 335 313 307 311 311 304 310 315 307 307 312 327 338 336 333 317 312 315 327 340 336 336 338 349 153 176 212 205 193 198 199 196 204 262 304 277 267 265 261
268 301 285 287 290 307 307 311 324 326 324 323 323 329 324 322 335 335 321 318 323 331 323 319 322 314 319 317 244 192 169 183 184 205 206 200 207 215 219 233 272 291 291 276
271 255 253 280 301 314 322 329 329 321 324 327 331 327 326 323 316 310 316 333 344 334 318 318 310 304 324 300 223 202 183 200 196 193 196 203 206 206 218 232 250 278 306 302
283 279 267 275 283 295 310 311 300 300 309 312 315 312 310 305 306 313 325 344 329 296 294 294 290 295 300 245 222 209 210 218 168 174 168 179 207 224 235 244 251 260 267 274
270 276 277 280 282 288 288 280 276 283 294 294 294 301 309 312 317 320 321 318 289 287 292 284 286 297 259 221 211 215 212 214 175 165 190 204 211 224 234 240 248 259 273 283
245 258 262 262 272 283 291 291 287 287 286 290 302 309 307 304 300 302 306 316 316 310 304 294 287 295 248 228 226 215 188 198 204 210 214 218 231 231 231 241 254 262 281 288
272 269 275 278 277 278 283 290 294 295 301 308 307 301 296 293 291 296 306 315 306 299 305 307 304 298 253 242 218 198 190 197 212 229 230 230 233 240 239 242 254 263 269 274
289 291 291 293 299 290 289 297 304 307 311 312 310 311 310 306 305 307 309 295 279 282 304 315 301 277 262 247 218 198 201 205 215 229 234 234 238 243 245 247 250 255 257 258
294 297 297 299 305 306 301 303 305 305 314 321 311 300 300 305 311 306 303 299 306 311 312 313 306 298 286 273 225 210 205 212 220 225 229 236 245 250 251 250 250 251 252 256
304 303 302 303 307 313 318 318 308 305 316 324 315 304 304 307 313 310 286 278 303 321 319 304 294 290 288 282 239 224 220 225 233 232 231 231 233 243 251 254 254 255 254 254
305 304 305 306 302 307 322 327 318 312 313 313 310 307 301 299 303 300 302 310 313 311 309 297 298 299 296 273 245 237 233 233 235 238 241 240 240 240 246 250 253 255 257 256
319 317 314 314 321 328 327 329 328 320 317 314 310 305 302 306 308 293 284 305 313 309 304 299 304 304 300 277 260 254 252 249 245 243 244 246 247 248 250 252 255 257 258 259
314 314 321 328 325 316 316 323 329 330 330 325 322 319 310 294 287 302 309 308 312 314 311 312 313 309 294 272 266 264 261 257 253 249 244 245 247 249 250 251 252 255 256 256
315 308 300 294 295 303 310 318 318 318 322 322 322 323 324 318 306 304 307 310 311 310 307 307 305 298 288 283 279 277 277 275 268 257 251 250 250 252 254 255 254 254 254 253
318 314 316 322 326 323 317 312 309 311 313 312 311 317 324 326 323 319 315 314 315 313 309 307 307 302 294 286 282 280 278 276 271 264 258 254 253 254 256 256 259 260 259 255